Location: McCall
(45.0000°N, 116.0000°W)
Time: 13:40:08
(UTC-06:00)

Saudisat 1A - Visible Passes

Search period start: 19 April 2018 00:00
Search period end: 29 April 2018 00:00
Orbit: 590 x 601 km, 64.6° (Epoch: 19 April)

Date Brightness Start Highest point End Pass type
(mag) Time Alt. Az. Time Alt. Az. Time Alt. Az.
19 Apr 10.6 02:55:08 10° N 02:58:22 19° NE 03:01:36 10° E visible
19 Apr 7.8 04:33:52 10° NW 04:38:16 73° WSW 04:40:50 24° SSE visible
19 Apr 11.1 22:02:09 10° WNW 22:04:12 13° NNW 22:06:17 10° N visible
20 Apr 9.9 03:04:35 10° NNW 03:08:25 28° NE 03:09:52 23° ENE visible
20 Apr 9.1 04:43:49 10° NW 04:46:22 29° WNW 04:46:22 29° WNW visible
21 Apr 11.1 01:36:41 10° N 01:37:50 11° NNE 01:38:58 10° NE visible
21 Apr 9.2 03:14:08 10° NNW 03:17:44 41° NNE 03:17:44 41° NNE visible
21 Apr 10.3 04:54:01 10° WNW 04:54:18 11° WNW 04:54:18 11° WNW visible
22 Apr 10.7 01:45:31 10° N 01:48:02 15° NNE 01:49:38 13° NE visible
22 Apr 9.5 03:23:49 10° NNW 03:26:13 31° NNW 03:26:13 31° NNW visible
23 Apr 10.3 01:54:48 10° NNW 01:58:10 21° NE 01:58:22 21° NE visible
23 Apr 10.0 03:33:37 10° NW 03:34:57 19° NW 03:34:57 19° NW visible
24 Apr 9.9 02:04:16 10° NNW 02:07:16 28° NNE 02:07:16 28° NNE visible
24 Apr 10.5 03:43:36 10° NW 03:43:52 11° NW 03:43:52 11° NW visible
25 Apr 10.9 00:36:09 10° N 00:37:39 11° NNE 00:39:09 10° NE visible
25 Apr 9.8 02:13:51 10° NNW 02:16:16 29° N 02:16:16 29° N visible
26 Apr 10.5 00:45:08 10° N 00:47:51 16° NNE 00:48:45 15° NE visible
26 Apr 10.0 02:23:32 10° NW 02:25:23 24° NNW 02:25:23 24° NNW visible
27 Apr 10.1 00:54:27 10° NNW 00:57:55 22° NE 00:57:55 22° NE visible
27 Apr 10.3 02:33:22 10° NW 02:34:32 18° NW 02:34:32 18° NW visible
28 Apr 9.7 01:03:57 10° NNW 01:07:07 30° NNE 01:07:07 30° NNE visible
28 Apr 10.6 02:43:23 10° NW 02:43:44 12° NW 02:43:44 12° NW visible
28 Apr 10.7 23:35:40 10° N 23:37:27 12° NNE 23:39:15 10° NE visible
